QPF
0.01 0.03 0.06 0.06 0.08 0.07 0.03 0.01 0.00 0.00 0.00 0.00 0.00 0.00 0.01 0.01 0.01 0.03 0.02 0.01 0.00 0.00 0.00 0.00 0.00 0.00 0.00 0.00 0.00 0.00 0.00 0.00 0.00 0.00 0.00 0.00 0.00 0.00 0.00 0.01 0.01 0.01 0.01 0.01 0.01 0.02 0.03 0.03 0.02
0.03 0.04 0.07 0.10 0.10 0.04 0.01 0.01 0.00 0.00 0.00 0.00 0.01 0.01 0.01 0.01 0.00 0.01 0.01 0.01 0.00 0.00 0.00 0.00 0.00 0.00 0.00 0.00 0.00 0.00 0.00 0.00 0.00 0.00 0.00 0.01 0.01 0.01 0.01 0.01 0.01 0.01 0.01 0.02 0.02 0.03 0.02 0.02 0.03
0.04 0.04 0.12 0.17 0.09 0.03 0.01 0.01 0.00 0.00 0.00 0.01 0.01 0.01 0.01 0.01 0.01 0.01 0.01 0.01 0.00 0.00 0.00 0.00 0.00 0.00 0.00 0.00 0.00 0.00 0.00 0.00 0.00 0.01 0.01 0.01 0.01 0.01 0.02 0.01 0.01 0.02 0.02 0.02 0.03 0.02 0.02 0.02 0.02
0.03 0.05 0.10 0.10 0.05 0.02 0.02 0.01 0.00 0.00 0.01 0.01 0.01 0.03 0.01 0.01 0.01 0.01 0.01 0.00 0.00 0.00 0.00 0.00 0.00 0.00 0.00 0.00 0.00 0.00 0.00 0.00 0.01 0.01 0.01 0.01 0.01 0.01 0.01 0.01 0.01 0.01 0.02 0.02 0.02 0.02 0.02 0.02 0.02
0.02 0.06 0.09 0.07 0.03 0.01 0.01 0.01 0.00 0.01 0.01 0.03 0.03 0.05 0.03 0.03 0.01 0.01 0.01 0.01 0.00 0.00 0.00 0.00 0.00 0.00 0.00 0.00 0.00 0.00 0.00 0.00 0.01 0.01 0.01 0.01 0.01 0.01 0.01 0.01 0.01 0.01 0.01 0.01 0.01 0.01 0.01 0.01 0.02
0.06 0.10 0.10 0.09 0.06 0.02 0.01 0.01 0.00 0.02 0.02 0.02 0.05 0.06 0.03 0.03 0.02 0.01 0.01 0.01 0.02 0.01 0.00 0.00 0.00 0.00 0.00 0.00 0.00 0.00 0.00 0.01 0.01 0.01 0.00 0.00 0.01 0.01 0.01 0.01 0.01 0.01 0.01 0.01 0.01 0.01 0.01 0.02 0.02
0.05 0.08 0.07 0.06 0.07 0.03 0.01 0.01 0.00 0.01 0.01 0.02 0.02 0.03 0.02 0.02 0.01 0.01 0.02 0.04 0.10 0.04 0.03 0.02 0.01 0.00 0.00 0.00 0.00 0.00 0.00 0.01 0.01 0.01 0.00 0.00 0.01 0.01 0.01 0.01 0.01 0.02 0.02 0.02 0.01 0.02 0.02 0.02 0.02
0.04 0.03 0.04 0.06 0.04 0.02 0.01 0.01 0.01 0.00 0.01 0.02 0.03 0.03 0.02 0.02 0.01 0.02 0.04 0.05 0.09 0.08 0.03 0.02 0.01 0.01 0.01 0.01 0.01 0.01 0.01 0.01 0.00 0.00 0.01 0.01 0.01 0.01 0.01 0.01 0.01 0.01 0.01 0.02 0.02 0.02 0.02 0.02 0.02
0.02 0.03 0.05 0.05 0.02 0.01 0.00 0.00 0.00 0.00 0.01 0.02 0.03 0.02 0.02 0.01 0.01 0.02 0.03 0.05 0.07 0.09 0.06 0.05 0.04 0.02 0.02 0.01 0.01 0.01 0.01 0.01 0.01 0.01 0.01 0.01 0.01 0.01 0.01 0.01 0.01 0.00 0.01 0.01 0.01 0.01 0.01 0.01 0.02
0.01 0.02 0.01 0.01 0.01 0.01 0.00 0.00 0.00 0.00 0.02 0.03 0.02 0.01 0.01 0.01 0.02 0.03 0.03 0.05 0.07 0.07 0.07 0.05 0.04 0.03 0.03 0.02 0.02 0.01 0.01 0.01 0.01 0.01 0.01 0.01 0.01 0.01 0.01 0.01 0.01 0.01 0.01 0.01 0.01 0.02 0.01 0.01 0.02
0.01 0.00 0.00 0.00 0.00 0.00 0.00 0.00 0.00 0.01 0.01 0.02 0.01 0.01 0.00 0.01 0.02 0.03 0.04 0.05 0.06 0.06 0.06 0.06 0.05 0.04 0.04 0.03 0.04 0.03 0.02 0.01 0.01 0.01 0.01 0.01 0.01 0.02 0.01 0.00 0.01 0.01 0.01 0.01 0.01 0.02 0.03 0.03 0.05
0.00 0.00 0.00 0.00 0.00 0.00 0.00 0.00 0.01 0.01 0.01 0.01 0.02 0.01 0.01 0.01 0.01 0.03 0.04 0.04 0.06 0.05 0.08 0.11 0.11 0.08 0.09 0.08 0.06 0.04 0.03 0.01 0.01 0.01 0.01 0.01 0.01 0.01 0.01 0.01 0.00 0.00 0.00 0.01 0.01 0.03 0.06 0.05 0.05
0.00 0.00 0.00 0.00 0.00 0.00 0.00 0.00 0.01 0.01 0.00 0.01 0.03 0.02 0.02 0.01 0.02 0.04 0.04 0.04 0.05 0.04 0.13 0.24 0.25 0.16 0.12 0.11 0.08 0.04 0.03 0.02 0.02 0.02 0.01 0.01 0.02 0.01 0.01 0.01 0.01 0.01 0.01 0.02 0.02 0.03 0.04 0.04 0.04
0.00 0.00 0.00 0.00 0.00 0.00 0.00 0.00 0.01 0.01 0.00 0.01 0.02 0.07 0.03 0.02 0.02 0.03 0.03 0.04 0.05 0.05 0.09 0.13 0.21 0.22 0.13 0.08 0.08 0.05 0.04 0.03 0.02 0.02 0.02 0.02 0.03 0.02 0.01 0.02 0.02 0.03 0.03 0.02 0.02 0.03 0.02 0.02 0.03
0.00 0.00 0.00 0.00 0.00 0.00 0.00 0.00 0.00 0.01 0.00 0.01 0.02 0.03 0.04 0.02 0.02 0.03 0.05 0.07 0.11 0.09 0.08 0.10 0.15 0.19 0.17 0.09 0.09 0.09 0.07 0.03 0.02 0.02 0.02 0.02 0.03 0.03 0.01 0.01 0.02 0.03 0.03 0.02 0.02 0.03 0.02 0.03 0.03
0.00 0.00 0.00 0.00 0.00 0.00 0.00 0.00 0.00 0.00 0.01 0.02 0.02 0.01 0.03 0.03 0.02 0.03 0.06 0.10 0.14 0.10 0.07 0.06 0.09 0.14 0.22 0.16 0.11 0.16 0.14 0.08 0.04 0.03 0.03 0.02 0.04 0.03 0.02 0.02 0.02 0.02 0.02 0.01 0.01 0.01 0.02 0.03 0.03
0.00 0.01 0.00 0.00 0.00 0.00 0.00 0.00 0.00 0.00 0.01 0.02 0.02 0.02 0.06 0.05 0.04 0.03 0.03 0.05 0.12 0.08 0.04 0.04 0.07 0.09 0.18 0.21 0.12 0.19 0.17 0.11 0.06 0.05 0.04 0.03 0.03 0.02 0.02 0.02 0.02 0.02 0.02 0.01 0.01 0.01 0.02 0.03 0.03
0.00 0.01 0.01 0.00 0.00 0.00 0.00 0.00 0.00 0.00 0.00 0.01 0.01 0.01 0.02 0.02 0.02 0.02 0.02 0.04 0.08 0.06 0.05 0.04 0.06 0.06 0.11 0.18 0.12 0.16 0.16 0.14 0.10 0.07 0.06 0.04 0.03 0.02 0.02 0.02 0.03 0.02 0.02 0.02 0.01 0.02 0.02 0.01 0.02
0.00 0.00 0.00 0.00 0.00 0.00 0.00 0.00 0.00 0.00 0.00 0.01 0.01 0.02 0.02 0.02 0.03 0.03 0.03 0.04 0.05 0.06 0.09 0.10 0.07 0.07 0.08 0.10 0.09 0.14 0.14 0.16 0.17 0.12 0.08 0.06 0.05 0.04 0.04 0.04 0.04 0.03 0.02 0.02 0.02 0.03 0.02 0.02 0.03
0.00 0.00 0.00 0.00 0.00 0.00 0.00 0.00 0.00 0.00 0.01 0.01 0.01 0.03 0.03 0.04 0.05 0.07 0.07 0.06 0.05 0.06 0.09 0.11 0.08 0.08 0.08 0.08 0.10 0.14 0.13 0.15 0.20 0.18 0.13 0.09 0.06 0.05 0.05 0.05 0.04 0.03 0.02 0.02 0.02 0.02 0.03 0.02 0.03
0.00 0.00 0.00 0.00 0.00 0.00 0.00 0.00 0.00 0.01 0.02 0.03 0.02 0.03 0.04 0.06 0.08 0.10 0.08 0.04 0.04 0.04 0.06 0.07 0.07 0.07 0.08 0.08 0.10 0.13 0.15 0.18 0.26 0.22 0.17 0.13 0.09 0.05 0.04 0.03 0.03 0.04 0.03 0.02 0.02 0.03 0.03 0.03 0.03
0.00 0.00 0.00 0.00 0.00 0.00 0.00 0.00 0.00 0.01 0.02 0.02 0.03 0.05 0.06 0.06 0.08 0.08 0.04 0.02 0.02 0.01 0.02 0.03 0.05 0.06 0.07 0.07 0.08 0.09 0.09 0.10 0.13 0.15 0.16 0.15 0.13 0.08 0.04 0.03 0.04 0.03 0.02 0.02 0.02 0.03 0.03 0.03 0.02
0.00 0.00 0.00 0.00 0.00 0.00 0.00 0.00 0.01 0.01 0.02 0.03 0.02 0.04 0.08 0.03 0.06 0.05 0.03 0.03 0.02 0.01 0.01 0.02 0.03 0.04 0.06 0.07 0.07 0.08 0.09 0.11 0.11 0.12 0.14 0.15 0.17 0.14 0.08 0.05 0.05 0.05 0.04 0.04 0.03 0.02 0.02 0.02 0.02
0.00 0.00 0.00 0.00 0.00 0.00 0.00 0.00 0.01 0.01 0.02 0.03 0.02 0.03 0.04 0.02 0.03 0.03 0.03 0.04 0.04 0.04 0.04 0.04 0.04 0.05 0.06 0.07 0.07 0.07 0.07 0.10 0.11 0.10 0.09 0.12 0.15 0.14 0.10 0.06 0.06 0.06 0.06 0.05 0.03 0.02 0.02 0.02 0.02
0.00 0.00 0.00 0.00 0.00 0.00 0.00 0.00 0.01 0.02 0.02 0.02 0.02 0.02 0.02 0.02 0.03 0.04 0.05 0.08 0.15 0.15 0.12 0.10 0.08 0.09 0.07 0.06 0.08 0.10 0.10 0.11 0.09 0.08 0.08 0.11 0.13 0.11 0.10 0.13 0.08 0.07 0.06 0.06 0.04 0.03 0.03 0.03 0.02
0.00 0.00 0.00 0.00 0.00 0.01 0.02 0.01 0.02 0.04 0.05 0.04 0.03 0.03 0.02 0.03 0.05 0.06 0.05 0.08 0.13 0.17 0.21 0.24 0.17 0.13 0.12 0.11 0.11 0.13 0.14 0.14 0.13 0.08 0.07 0.08 0.09 0.11 0.11 0.16 0.11 0.09 0.07 0.07 0.07 0.07 0.06 0.04 0.03
0.00 0.00 0.00 0.00 0.00 0.00 0.01 0.02 0.06 0.07 0.08 0.07 0.06 0.06 0.06 0.06 0.09 0.07 0.06 0.06 0.08 0.07 0.07 0.11 0.09 0.08 0.07 0.08 0.09 0.11 0.13 0.15 0.15 0.09 0.06 0.05 0.06 0.09 0.10 0.11 0.10 0.11 0.08 0.07 0.08 0.11 0.11 0.09 0.07
0.00 0.00 0.00 0.00 0.00 0.00 0.02 0.04 0.06 0.06 0.10 0.13 0.12 0.08 0.07 0.08 0.10 0.10 0.07 0.06 0.04 0.04 0.04 0.05 0.06 0.06 0.05 0.05 0.05 0.07 0.10 0.11 0.12 0.09 0.08 0.06 0.06 0.10 0.11 0.11 0.11 0.12 0.10 0.08 0.09 0.10 0.11 0.11 0.09
0.00 0.00 0.00 0.00 0.00 0.00 0.02 0.03 0.04 0.06 0.09 0.08 0.10 0.11 0.10 0.10 0.11 0.11 0.10 0.09 0.06 0.03 0.04 0.04 0.06 0.05 0.04 0.04 0.04 0.05 0.08 0.10 0.10 0.09 0.09 0.08 0.07 0.09 0.10 0.09 0.11 0.13 0.13 0.13 0.10 0.08 0.09 0.09 0.08
0.00 0.00 0.00 0.00 0.00 0.00 0.00 0.01 0.02 0.04 0.06 0.11 0.15 0.16 0.18 0.15 0.08 0.06 0.06 0.04 0.04 0.03 0.04 0.04 0.05 0.05 0.05 0.05 0.04 0.05 0.05 0.08 0.08 0.09 0.10 0.10 0.11 0.10 0.08 0.09 0.13 0.14 0.12 0.10 0.09 0.09 0.10 0.09 0.09
MSLP
1009.59 1010.57 1011.75 1012.90 1013.77 1014.21 1014.17 1013.69 1012.91 1012.06 1011.34 1010.91 1010.83 1011.08 1011.54 1012.08 1012.53 1012.80 1012.85 1012.72 1012.51 1012.33 1012.28 1012.41 1012.73 1013.17 1013.64 1014.06 1014.35 1014.50 1014.53 1014.48 1014.42 1014.42 1014.50 1014.66 1014.87 1015.07 1015.23 1015.30 1015.30 1015.24 1015.17 1015.12 1015.13 1015.21 1015.36 1015.54 1015.75
1010.34 1011.57 1012.87 1013.99 1014.71 1014.89 1014.53 1013.72 1012.65 1011.55 1010.67 1010.14 1010.03 1010.29 1010.79 1011.37 1011.89 1012.22 1012.35 1012.31 1012.21 1012.14 1012.20 1012.43 1012.82 1013.30 1013.79 1014.21 1014.50 1014.65 1014.68 1014.65 1014.63 1014.66 1014.77 1014.93 1015.12 1015.29 1015.39 1015.41 1015.36 1015.27 1015.19 1015.15 1015.18 1015.30 1015.49 1015.72 1015.95
1011.38 1012.78 1014.12 1015.13 1015.63 1015.52 1014.83 1013.70 1012.36 1011.08 1010.08 1009.52 1009.41 1009.71 1010.26 1010.89 1011.45 1011.84 1012.02 1012.06 1012.03 1012.05 1012.19 1012.49 1012.93 1013.44 1013.94 1014.35 1014.63 1014.78 1014.82 1014.82 1014.82 1014.88 1014.99 1015.15 1015.31 1015.43 1015.49 1015.46 1015.38 1015.27 1015.20 1015.20 1015.28 1015.46 1015.69 1015.96 1016.22
1012.57 1014.05 1015.33 1016.16 1016.39 1015.97 1014.97 1013.57 1012.04 1010.65 1009.62 1009.08 1009.03 1009.38 1009.99 1010.67 1011.26 1011.68 1011.90 1011.98 1012.02 1012.10 1012.30 1012.64 1013.10 1013.61 1014.09 1014.48 1014.74 1014.88 1014.93 1014.95 1014.98 1015.06 1015.19 1015.34 1015.47 1015.56 1015.57 1015.51 1015.41 1015.32 1015.28 1015.34 1015.48 1015.72 1016.01 1016.31 1016.59
1013.72 1015.17 1016.30 1016.89 1016.83 1016.12 1014.86 1013.29 1011.66 1010.26 1009.28 1008.83 1008.87 1009.31 1009.97 1010.68 1011.29 1011.72 1011.96 1012.07 1012.15 1012.27 1012.51 1012.87 1013.33 1013.82 1014.26 1014.61 1014.84 1014.96 1015.02 1015.05 1015.11 1015.22 1015.36 1015.52 1015.64 1015.70 1015.69 1015.62 1015.53 1015.47 1015.48 1015.59 1015.80 1016.09 1016.42 1016.75 1017.03
1014.62 1015.93 1016.84 1017.16 1016.81 1015.86 1014.43 1012.78 1011.18 1009.87 1009.03 1008.72 1008.89 1009.42 1010.14 1010.86 1011.47 1011.89 1012.13 1012.26 1012.37 1012.53 1012.79 1013.16 1013.61 1014.06 1014.45 1014.74 1014.93 1015.02 1015.07 1015.13 1015.23 1015.37 1015.55 1015.73 1015.86 1015.93 1015.92 1015.85 1015.78 1015.75 1015.81 1015.97 1016.23 1016.56 1016.91 1017.24 1017.51
1015.12 1016.21 1016.83 1016.86 1016.27 1015.15 1013.66 1012.05 1010.57 1009.46 1008.82 1008.70 1009.02 1009.63 1010.38 1011.10 1011.68 1012.07 1012.31 1012.46 1012.60 1012.80 1013.09 1013.47 1013.90 1014.30 1014.63 1014.86 1015.00 1015.07 1015.12 1015.20 1015.34 1015.54 1015.78 1016.00 1016.16 1016.25 1016.26 1016.21 1016.15 1016.15 1016.23 1016.42 1016.70 1017.04 1017.39 1017.71 1017.96
1015.15 1015.95 1016.28 1016.04 1015.26 1014.05 1012.59 1011.12 1009.86 1009.00 1008.62 1008.70 1009.16 1009.84 1010.60 1011.28 1011.82 1012.18 1012.41 1012.58 1012.76 1013.01 1013.34 1013.74 1014.15 1014.52 1014.79 1014.97 1015.05 1015.09 1015.15 1015.26 1015.46 1015.73 1016.03 1016.32 1016.53 1016.65 1016.68 1016.64 1016.60 1016.60 1016.68 1016.87 1017.15 1017.49 1017.82 1018.10 1018.32
1014.74 1015.26 1015.29 1014.83 1013.92 1012.70 1011.35 1010.10 1009.11 1008.54 1008.41 1008.69 1009.26 1009.99 1010.72 1011.35 1011.82 1012.14 1012.36 1012.55 1012.79 1013.10 1013.49 1013.92 1014.33 1014.67 1014.90 1015.02 1015.07 1015.09 1015.16 1015.32 1015.58 1015.92 1016.30 1016.65 1016.93 1017.09 1017.13 1017.10 1017.05 1017.04 1017.11 1017.28 1017.53 1017.83 1018.13 1018.39 1018.58
1014.05 1014.28 1014.07 1013.43 1012.45 1011.29 1010.11 1009.10 1008.40 1008.11 1008.22 1008.66 1009.30 1010.03 1010.70 1011.25 1011.65 1011.92 1012.14 1012.36 1012.66 1013.04 1013.49 1013.96 1014.39 1014.71 1014.92 1015.01 1015.03 1015.05 1015.14 1015.34 1015.66 1016.08 1016.53 1016.95 1017.28 1017.48 1017.54 1017.52 1017.45 1017.42 1017.45 1017.58 1017.80 1018.07 1018.34 1018.58 1018.74
1013.27 1013.26 1012.84 1012.08 1011.09 1010.01 1009.02 1008.25 1007.82 1007.78 1008.07 1008.61 1009.29 1009.97 1010.56 1011.02 1011.33 1011.56 1011.76 1012.02 1012.37 1012.82 1013.33 1013.85 1014.30 1014.63 1014.83 1014.91 1014.93 1014.96 1015.07 1015.31 1015.69 1016.17 1016.68 1017.15 1017.53 1017.76 1017.85 1017.82 1017.75 1017.69 1017.70 1017.79 1017.98 1018.22 1018.48 1018.70 1018.87
1012.60 1012.39 1011.83 1011.00 1010.03 1009.05 1008.23 1007.67 1007.45 1007.58 1007.99 1008.58 1009.23 1009.84 1010.33 1010.68 1010.92 1011.10 1011.30 1011.58 1011.97 1012.47 1013.04 1013.60 1014.07 1014.42 1014.63 1014.72 1014.75 1014.80 1014.94 1015.22 1015.63 1016.15 1016.70 1017.22 1017.63 1017.89 1018.00 1017.99 1017.92 1017.85 1017.85 1017.93 1018.10 1018.33 1018.59 1018.83 1019.01
1012.19 1011.85 1011.19 1010.32 1009.38 1008.50 1007.81 1007.40 1007.32 1007.54 1008.00 1008.57 1009.16 1009.68 1010.07 1010.33 1010.49 1010.63 1010.82 1011.11 1011.53 1012.07 1012.66 1013.24 1013.74 1014.12 1014.35 1014.46 1014.52 1014.61 1014.77 1015.07 1015.50 1016.03 1016.60 1017.13 1017.56 1017.84 1017.99 1018.01 1017.97 1017.93 1017.94 1018.03 1018.21 1018.46 1018.74 1019.00 1019.22
1012.12 1011.67 1010.96 1010.08 1009.17 1008.36 1007.77 1007.45 1007.42 1007.67 1008.10 1008.61 1009.11 1009.53 1009.83 1010.01 1010.13 1010.23 1010.41 1010.70 1011.13 1011.66 1012.26 1012.85 1013.37 1013.76 1014.03 1014.18 1014.29 1014.40 1014.59 1014.90 1015.32 1015.83 1016.38 1016.90 1017.34 1017.65 1017.83 1017.91 1017.93 1017.94 1018.00 1018.14 1018.36 1018.64 1018.95 1019.24 1019.50
1012.30 1011.80 1011.06 1010.19 1009.33 1008.57 1008.03 1007.74 1007.71 1007.91 1008.26 1008.68 1009.08 1009.42 1009.65 1009.79 1009.88 1009.98 1010.15 1010.43 1010.83 1011.34 1011.91 1012.49 1013.01 1013.42 1013.73 1013.94 1014.10 1014.25 1014.46 1014.76 1015.15 1015.62 1016.12 1016.60 1017.02 1017.35 1017.59 1017.73 1017.84 1017.94 1018.07 1018.27 1018.54 1018.86 1019.20 1019.53 1019.82
1012.63 1012.10 1011.36 1010.53 1009.72 1009.01 1008.49 1008.19 1008.11 1008.22 1008.47 1008.78 1009.09 1009.35 1009.54 1009.68 1009.77 1009.88 1010.05 1010.32 1010.69 1011.15 1011.67 1012.21 1012.72 1013.16 1013.51 1013.78 1014.00 1014.20 1014.42 1014.70 1015.04 1015.43 1015.86 1016.29 1016.68 1017.02 1017.30 1017.52 1017.72 1017.92 1018.15 1018.42 1018.73 1019.08 1019.45 1019.79 1020.10
1012.92 1012.39 1011.71 1010.95 1010.22 1009.57 1009.07 1008.74 1008.58 1008.58 1008.70 1008.90 1009.12 1009.33 1009.52 1009.67 1009.81 1009.95 1010.13 1010.38 1010.70 1011.10 1011.56 1012.06 1012.55 1013.00 1013.40 1013.74 1014.03 1014.28 1014.51 1014.76 1015.03 1015.34 1015.67 1016.01 1016.36 1016.69 1017.01 1017.31 1017.60 1017.90 1018.21 1018.54 1018.90 1019.26 1019.63 1019.97 1020.28
1013.06 1012.58 1011.99 1011.36 1010.74 1010.18 1009.71 1009.34 1009.10 1008.98 1008.96 1009.04 1009.18 1009.35 1009.55 1009.74 1009.94 1010.13 1010.34 1010.57 1010.85 1011.19 1011.58 1012.02 1012.48 1012.95 1013.40 1013.81 1014.17 1014.47 1014.72 1014.94 1015.14 1015.35 1015.57 1015.82 1016.10 1016.41 1016.75 1017.11 1017.48 1017.86 1018.24 1018.62 1018.99 1019.35 1019.69 1020.02 1020.31
1012.97 1012.60 1012.17 1011.73 1011.28 1010.84 1010.41 1010.03 1009.69 1009.43 1009.27 1009.21 1009.26 1009.39 1009.60 1009.85 1010.11 1010.37 1010.61 1010.85 1011.09 1011.36 1011.68 1012.06 1012.49 1012.97 1013.47 1013.94 1014.37 1014.73 1015.00 1015.20 1015.34 1015.45 1015.57 1015.72 1015.93 1016.20 1016.54 1016.94 1017.36 1017.79 1018.22 1018.61 1018.98 1019.31 1019.62 1019.91 1020.17
1012.69 1012.48 1012.28 1012.08 1011.85 1011.57 1011.22 1010.82 1010.39 1009.98 1009.65 1009.43 1009.37 1009.45 1009.66 1009.95 1010.28 1010.60 1010.89 1011.13 1011.34 1011.56 1011.81 1012.13 1012.53 1013.01 1013.54 1014.07 1014.57 1014.98 1015.28 1015.47 1015.56 1015.60 1015.62 1015.69 1015.82 1016.05 1016.38 1016.78 1017.23 1017.69 1018.13 1018.53 1018.87 1019.17 1019.43 1019.67 1019.91
1012.30 1012.32 1012.42 1012.51 1012.54 1012.45 1012.19 1011.77 1011.23 1010.65 1010.12 1009.73 1009.52 1009.51 1009.70 1010.02 1010.40 1010.78 1011.11 1011.37 1011.57 1011.74 1011.92 1012.18 1012.54 1013.01 1013.55 1014.13 1014.68 1015.15 1015.49 1015.69 1015.76 1015.75 1015.71 1015.70 1015.77 1015.95 1016.25 1016.65 1017.10 1017.56 1018.00 1018.38 1018.69 1018.94 1019.16 1019.36 1019.58
1011.94 1012.25 1012.67 1013.09 1013.40 1013.49 1013.31 1012.87 1012.21 1011.45 1010.70 1010.09 1009.71 1009.59 1009.71 1010.03 1010.45 1010.89 1011.26 1011.54 1011.72 1011.86 1011.99 1012.18 1012.49 1012.93 1013.47 1014.07 1014.66 1015.17 1015.55 1015.78 1015.86 1015.84 1015.77 1015.72 1015.74 1015.89 1016.15 1016.53 1016.97 1017.42 1017.83 1018.19 1018.47 1018.69 1018.87 1019.05 1019.25
1011.72 1012.34 1013.10 1013.84 1014.41 1014.67 1014.56 1014.08 1013.29 1012.33 1011.35 1010.52 1009.95 1009.68 1009.73 1010.02 1010.45 1010.93 1011.34 1011.64 1011.82 1011.92 1012.00 1012.14 1012.38 1012.76 1013.28 1013.87 1014.48 1015.03 1015.47 1015.74 1015.85 1015.84 1015.78 1015.71 1015.72 1015.84 1016.07 1016.42 1016.83 1017.26 1017.65 1017.98 1018.24 1018.44 1018.60 1018.77 1018.98
1011.69 1012.61 1013.67 1014.70 1015.48 1015.89 1015.82 1015.28 1014.36 1013.21 1012.02 1010.98 1010.22 1009.81 1009.77 1010.02 1010.45 1010.95 1011.39 1011.71 1011.90 1011.97 1012.00 1012.07 1012.24 1012.56 1013.02 1013.59 1014.19 1014.77 1015.24 1015.56 1015.72 1015.76 1015.73 1015.68 1015.68 1015.78 1016.00 1016.31 1016.69 1017.08 1017.45 1017.77 1018.02 1018.21 1018.37 1018.55 1018.76
1011.82 1012.99 1014.30 1015.54 1016.48 1016.98 1016.93 1016.34 1015.31 1014.00 1012.64 1011.42 1010.51 1009.99 1009.86 1010.07 1010.50 1011.01 1011.47 1011.81 1011.99 1012.05 1012.03 1012.03 1012.12 1012.36 1012.75 1013.27 1013.85 1014.42 1014.92 1015.29 1015.51 1015.60 1015.62 1015.60 1015.62 1015.71 1015.90 1016.18 1016.52 1016.88 1017.22 1017.52 1017.77 1017.97 1018.15 1018.34 1018.57
1012.02 1013.37 1014.84 1016.19 1017.23 1017.76 1017.71 1017.09 1015.99 1014.60 1013.14 1011.83 1010.83 1010.23 1010.05 1010.23 1010.64 1011.15 1011.62 1011.97 1012.15 1012.18 1012.12 1012.06 1012.08 1012.23 1012.54 1012.98 1013.52 1014.07 1014.58 1014.98 1015.25 1015.40 1015.46 1015.48 1015.51 1015.60 1015.76 1016.00 1016.30 1016.62 1016.94 1017.23 1017.48 1017.70 1017.91 1018.11 1018.35
1012.18 1013.61 1015.13 1016.51 1017.55 1018.09 1018.03 1017.40 1016.31 1014.92 1013.47 1012.16 1011.15 1010.54 1010.35 1010.51 1010.91 1011.41 1011.87 1012.21 1012.37 1012.38 1012.29 1012.17 1012.12 1012.19 1012.41 1012.78 1013.25 1013.76 1014.25 1014.66 1014.97 1015.16 1015.26 1015.32 1015.36 1015.44 1015.57 1015.77 1016.01 1016.29 1016.58 1016.86 1017.12 1017.36 1017.59 1017.83 1018.08
1012.19 1013.59 1015.06 1016.38 1017.37 1017.87 1017.82 1017.24 1016.22 1014.94 1013.60 1012.39 1011.47 1010.92 1010.76 1010.92 1011.30 1011.77 1012.20 1012.51 1012.65 1012.63 1012.51 1012.35 1012.24 1012.24 1012.39 1012.67 1013.07 1013.53 1013.98 1014.38 1014.69 1014.91 1015.04 1015.11 1015.16 1015.22 1015.32 1015.47 1015.67 1015.90 1016.16 1016.42 1016.68 1016.95 1017.21 1017.47 1017.74
1012.01 1013.29 1014.60 1015.78 1016.66 1017.11 1017.08 1016.60 1015.74 1014.66 1013.54 1012.54 1011.78 1011.34 1011.23 1011.40 1011.75 1012.17 1012.54 1012.80 1012.91 1012.86 1012.72 1012.54 1012.40 1012.35 1012.43 1012.65 1012.98 1013.37 1013.77 1014.14 1014.43 1014.65 1014.78 1014.86 1014.91 1014.96 1015.03 1015.14 1015.29 1015.47 1015.70 1015.95 1016.21 1016.49 1016.78 1017.07 1017.36
1011.65 1012.73 1013.83 1014.80 1015.53 1015.93 1015.94 1015.60 1014.97 1014.16 1013.32 1012.59 1012.05 1011.76 1011.72 1011.89 1012.20 1012.54 1012.84 1013.03 1013.08 1013.01 1012.86 1012.67 1012.53 1012.46 1012.51 1012.67 1012.93 1013.26 1013.60 1013.92 1014.19 1014.39 1014.52 1014.61 1014.65 1014.69 1014.74 1014.81 1014.93 1015.08 1015.28 1015.51 1015.78 1016.08 1016.39 1016.71 1017.02
Thickness
5834 5833 5830 5818 5794 5773 5773 5791 5803 5804 5806 5816 5820 5812 5801 5792 5780 5770 5792 5798 5794 5789 5786 5783 5780 5779 5777 5776 5775 5775 5774 5773 5773 5772 5771 5770 5769 5768 5767 5766 5764 5763 5763 5762 5760 5760 5758 5757 5755
5837 5835 5822 5805 5776 5756 5771 5797 5802 5807 5815 5822 5820 5814 5804 5796 5799 5794 5794 5796 5794 5789 5785 5783 5780 5778 5776 5775 5774 5773 5773 5772 5771 5771 5770 5769 5768 5767 5766 5765 5763 5762 5761 5760 5759 5758 5757 5755 5754
5839 5835 5811 5790 5771 5763 5776 5800 5808 5817 5825 5824 5815 5815 5806 5798 5800 5798 5798 5797 5792 5788 5785 5782 5780 5777 5776 5774 5773 5772 5771 5770 5770 5769 5769 5768 5767 5766 5765 5763 5762 5761 5760 5759 5757 5756 5755 5753 5752
5836 5821 5805 5781 5772 5787 5797 5807 5819 5817 5820 5823 5816 5806 5809 5815 5811 5805 5801 5797 5791 5786 5784 5781 5778 5776 5775 5773 5772 5770 5770 5769 5768 5768 5767 5766 5766 5765 5763 5762 5761 5760 5758 5757 5756 5754 5753 5752 5751
5832 5807 5784 5770 5780 5801 5817 5824 5826 5818 5816 5817 5815 5800 5800 5814 5815 5807 5800 5795 5790 5785 5782 5779 5777 5775 5773 5772 5770 5769 5768 5767 5767 5766 5766 5765 5764 5763 5762 5761 5760 5758 5757 5756 5754 5753 5751 5750 5749
5814 5797 5771 5765 5784 5808 5822 5832 5829 5821 5817 5817 5812 5800 5797 5811 5809 5803 5799 5793 5790 5785 5781 5778 5775 5773 5772 5770 5769 5768 5767 5766 5765 5765 5764 5764 5763 5761 5760 5759 5758 5756 5755 5754 5753 5751 5750 5749 5748
5806 5788 5774 5778 5787 5803 5823 5836 5830 5822 5817 5819 5820 5799 5797 5804 5809 5804 5798 5793 5788 5784 5781 5777 5774 5772 5770 5769 5768 5767 5765 5764 5764 5763 5763 5762 5761 5760 5759 5757 5756 5755 5753 5753 5751 5750 5749 5748 5747
5818 5792 5778 5782 5792 5805 5830 5836 5838 5831 5825 5833 5827 5804 5796 5806 5810 5804 5796 5789 5785 5781 5778 5775 5772 5771 5769 5767 5766 5765 5764 5763 5762 5762 5761 5760 5759 5758 5757 5755 5754 5753 5752 5751 5750 5749 5748 5747 5746
5825 5786 5774 5790 5802 5814 5834 5834 5839 5846 5836 5832 5832 5825 5821 5818 5811 5799 5789 5782 5779 5777 5775 5773 5770 5768 5767 5766 5765 5764 5763 5762 5761 5760 5759 5758 5757 5756 5754 5753 5752 5752 5751 5750 5749 5748 5747 5746 5745
5813 5783 5794 5817 5828 5829 5837 5838 5838 5834 5825 5822 5823 5826 5825 5817 5808 5797 5788 5781 5777 5774 5773 5772 5769 5767 5765 5765 5763 5762 5761 5760 5759 5759 5758 5757 5755 5754 5753 5752 5751 5750 5749 5749 5748 5747 5746 5745 5744
5817 5804 5819 5832 5842 5842 5838 5840 5844 5830 5817 5822 5821 5820 5820 5813 5804 5798 5792 5788 5783 5778 5775 5771 5769 5766 5764 5764 5762 5760 5759 5758 5757 5757 5756 5755 5754 5752 5751 5750 5749 5749 5748 5747 5747 5746 5745 5744 5744
5822 5826 5833 5838 5848 5847 5842 5840 5837 5835 5835 5842 5839 5832 5823 5813 5804 5799 5795 5790 5785 5779 5776 5773 5770 5767 5764 5762 5761 5759 5758 5757 5756 5755 5754 5753 5752 5751 5750 5749 5748 5747 5747 5746 5745 5744 5744 5744 5743
5825 5830 5841 5846 5848 5850 5848 5840 5839 5838 5847 5846 5840 5831 5822 5814 5807 5803 5800 5794 5788 5782 5778 5774 5770 5766 5764 5761 5759 5758 5757 5757 5756 5755 5754 5753 5752 5750 5749 5748 5747 5746 5746 5745 5744 5743 5743 5743 5742
5830 5834 5839 5845 5847 5851 5843 5839 5837 5836 5845 5840 5834 5826 5821 5814 5808 5803 5798 5793 5789 5785 5780 5777 5772 5769 5765 5761 5759 5758 5757 5757 5756 5755 5754 5753 5752 5751 5749 5748 5747 5746 5746 5745 5744 5743 5742 5742 5741
5836 5826 5830 5841 5844 5847 5841 5826 5832 5840 5841 5833 5829 5825 5820 5815 5810 5805 5801 5796 5791 5787 5782 5778 5774 5770 5766 5763 5761 5759 5757 5756 5755 5754 5754 5753 5753 5751 5750 5748 5747 5747 5746 5745 5743 5742 5741 5741 5740
5822 5811 5803 5828 5841 5845 5829 5806 5832 5841 5836 5827 5825 5823 5817 5813 5812 5808 5804 5798 5793 5788 5783 5779 5776 5770 5766 5763 5761 5759 5756 5755 5755 5755 5754 5753 5753 5752 5750 5748 5747 5747 5746 5744 5743 5741 5739 5738 5737
5797 5788 5794 5815 5841 5841 5827 5811 5831 5838 5833 5824 5822 5820 5817 5812 5810 5808 5804 5799 5794 5789 5784 5779 5775 5770 5765 5763 5760 5757 5755 5755 5754 5754 5753 5752 5752 5751 5750 5749 5748 5747 5745 5744 5743 5741 5739 5736 5735
5780 5787 5795 5805 5832 5835 5823 5818 5828 5835 5832 5824 5821 5818 5814 5809 5808 5807 5803 5798 5794 5789 5785 5780 5775 5770 5766 5761 5758 5755 5754 5753 5753 5753 5752 5752 5751 5751 5750 5749 5748 5746 5745 5743 5742 5740 5739 5737 5735
5797 5793 5793 5811 5835 5828 5819 5817 5823 5829 5827 5820 5816 5813 5810 5807 5807 5806 5802 5797 5791 5786 5782 5778 5774 5770 5766 5760 5755 5752 5749 5750 5750 5751 5751 5751 5751 5750 5749 5748 5746 5746 5744 5742 5741 5739 5737 5735 5735
5798 5792 5796 5812 5832 5826 5815 5814 5823 5826 5824 5823 5818 5812 5808 5803 5802 5800 5798 5794 5789 5784 5780 5777 5774 5770 5766 5762 5758 5754 5751 5749 5750 5750 5750 5750 5750 5749 5748 5747 5745 5744 5743 5741 5740 5738 5735 5734 5734
5797 5795 5799 5804 5818 5822 5812 5797 5806 5817 5822 5822 5821 5817 5812 5807 5801 5797 5795 5792 5788 5784 5781 5778 5773 5770 5766 5763 5758 5753 5749 5747 5746 5746 5747 5748 5748 5748 5747 5746 5744 5743 5742 5740 5739 5737 5734 5730 5731
5790 5812 5814 5811 5796 5781 5794 5765 5788 5800 5805 5811 5812 5811 5808 5806 5801 5798 5794 5790 5788 5786 5783 5779 5774 5770 5766 5763 5757 5752 5747 5744 5745 5746 5746 5747 5747 5747 5746 5745 5744 5743 5742 5740 5739 5738 5735 5731 5727
5806 5821 5816 5810 5793 5776 5778 5766 5772 5790 5790 5798 5805 5806 5806 5805 5801 5797 5795 5792 5790 5787 5783 5779 5774 5770 5766 5762 5758 5753 5749 5747 5746 5745 5744 5744 5744 5745 5745 5744 5743 5742 5740 5739 5738 5736 5735 5733 5729
5822 5813 5800 5785 5769 5751 5765 5762 5759 5774 5784 5794 5801 5804 5804 5804 5800 5796 5794 5791 5788 5786 5782 5777 5773 5768 5766 5762 5758 5754 5750 5747 5744 5743 5741 5741 5741 5742 5742 5743 5741 5741 5739 5738 5737 5736 5734 5732 5730
5811 5775 5747 5744 5733 5740 5765 5761 5760 5787 5799 5799 5799 5802 5804 5802 5798 5793 5790 5787 5784 5781 5778 5775 5771 5767 5764 5761 5758 5755 5751 5748 5745 5743 5741 5740 5739 5738 5740 5741 5740 5739 5738 5737 5736 5734 5732 5731 5729
5796 5775 5742 5730 5727 5737 5757 5755 5768 5797 5804 5804 5802 5802 5801 5797 5794 5790 5787 5785 5782 5780 5777 5774 5769 5766 5763 5760 5757 5755 5752 5749 5746 5745 5743 5741 5739 5739 5739 5739 5738 5737 5737 5735 5734 5732 5731 5730 5728
5792 5779 5776 5749 5742 5733 5740 5758 5775 5790 5792 5794 5793 5794 5793 5792 5789 5787 5785 5783 5780 5777 5775 5772 5769 5765 5762 5759 5756 5754 5752 5749 5746 5745 5743 5741 5740 5739 5738 5737 5736 5736 5735 5733 5731 5729 5728 5727 5725
5808 5794 5762 5745 5728 5721 5735 5746 5751 5771 5776 5782 5784 5786 5787 5787 5785 5783 5781 5780 5779 5776 5774 5771 5768 5764 5761 5759 5755 5753 5751 5749 5747 5744 5741 5740 5739 5738 5736 5735 5735 5733 5732 5731 5728 5726 5725 5723 5722
5796 5789 5769 5747 5740 5724 5720 5738 5778 5778 5781 5781 5783 5785 5785 5783 5782 5780 5778 5778 5777 5774 5771 5767 5764 5761 5758 5756 5754 5752 5750 5748 5746 5743 5741 5739 5737 5736 5734 5733 5732 5730 5729 5727 5725 5723 5721 5719 5717
5802 5790 5770 5749 5743 5736 5727 5741 5788 5786 5786 5784 5783 5784 5783 5783 5782 5780 5777 5774 5771 5769 5767 5764 5761 5758 5755 5754 5752 5749 5747 5745 5743 5740 5739 5737 5735 5734 5732 5731 5729 5727 5725 5723 5721 5718 5716 5714 5712